Location: Acequia del Cap
(41.7000°N, 0.6167°E)
Time: 01:06:41
(UTC+00:00)

IRS-1D - Pass Details

Date: 07 August 2020
Orbit: 741 x 816 km, 98.6° (Epoch: 22 September)

Event Time Altitude Azimuth Distance (km) Brightness Sun altitude
Rises 02:23:35 0° 11° (N) 3,216 7.8 -23.6°
Reaches altitude 10° 02:25:52 10° 10° (N) 2,295 6.8 -23.3°
Maximum altitude 02:30:54 74° 286° (WNW) 801 3.4 -22.7°
Enters shadow 02:31:55 56° 221° (SW) 913 3.5 -22.6°
